Time,TemperatureF,DewpointF,PressureIn,WindDirection,WindDirectionDegrees,WindSpeedMPH,WindSpeedGustMPH,Humidity,HourlyPrecipIn,Conditions,Clouds,dailyrainin,SoftwareType,DateUTC
2013-02-08 00:00:00,34.9,27.5,30.18,ENE,75,6.0,9.0,74,0.00,,---,0.00,VWS V14.01,2013-02-08 05:00:00,
2013-02-08 00:05:00,34.7,27.3,30.17,NE,36,5.0,6.0,74,0.00,,---,0.00,VWS V14.01,2013-02-08 05:05:00,
2013-02-08 00:10:00,34.7,27.6,30.17,NE,54,3.0,7.0,75,0.00,,---,0.00,VWS V14.01,2013-02-08 05:10:00,
2013-02-08 00:15:00,34.6,27.5,30.17,ENE,71,3.0,6.0,75,0.00,,---,0.00,VWS V14.01,2013-02-08 05:15:00,
2013-02-08 00:20:00,34.6,27.5,30.16,NNE,31,5.0,7.0,75,0.00,,---,0.00,VWS V14.01,2013-02-08 05:20:00,
2013-02-08 00:25:00,34.6,27.8,30.16,NNE,24,4.0,8.0,76,0.00,,---,0.00,VWS V14.01,2013-02-08 05:25:00,
2013-02-08 00:30:00,34.4,28.3,30.16,NNE,24,4.0,5.0,78,0.00,,---,0.00,VWS V14.01,2013-02-08 05:30:00,
2013-02-08 00:35:00,34.3,28.8,30.16,NE,36,3.0,5.0,80,0.00,,---,0.00,VWS V14.01,2013-02-08 05:35:00,
2013-02-08 00:40:00,34.1,28.9,30.16,NE,36,1.0,4.0,81,0.00,,---,0.00,VWS V14.01,2013-02-08 05:40:00,
2013-02-08 00:45:00,34.0,29.1,30.16,NE,36,4.0,5.0,82,0.00,,---,0.00,VWS V14.01,2013-02-08 05:45:00,
2013-02-08 00:50:00,33.8,29.2,30.15,ENE,58,4.0,4.0,83,0.00,,---,0.00,VWS V14.01,2013-02-08 05:50:00,
2013-02-08 00:55:00,33.5,29.2,30.15,ENE,58,1.0,5.0,84,0.00,,---,0.00,VWS V14.01,2013-02-08 05:55:00,
2013-02-08 01:00:00,33.4,29.4,30.15,ENE,58,2.0,3.0,85,0.00,,---,0.00,VWS V14.01,2013-02-08 06:00:00,
2013-02-08 01:05:00,33.1,29.4,30.15,ENE,58,2.0,3.0,86,0.00,,---,0.00,VWS V14.01,2013-02-08 06:05:00,
2013-02-08 01:10:00,32.9,29.5,30.15,ENE,59,1.0,4.0,87,0.00,,---,0.00,VWS V14.01,2013-02-08 06:10:00,
2013-02-08 01:15:00,32.8,29.6,30.15,ENE,59,2.0,2.0,88,0.00,,---,0.00,VWS V14.01,2013-02-08 06:15:00,
2013-02-08 01:20:00,32.6,29.7,30.14,ENE,59,0.0,2.0,89,0.00,,---,0.00,VWS V14.01,2013-02-08 06:20:00,
2013-02-08 01:25:00,32.6,29.7,30.14,ENE,59,0.0,1.0,89,0.00,,---,0.00,VWS V14.01,2013-02-08 06:25:00,
2013-02-08 01:30:00,32.5,29.9,30.14,ENE,59,3.0,3.0,90,0.00,,---,0.00,VWS V14.01,2013-02-08 06:30:00,
2013-02-08 01:35:00,32.3,29.7,30.13,ENE,59,2.0,4.0,90,0.00,,---,0.00,VWS V14.01,2013-02-08 06:35:00,
2013-02-08 01:40:00,32.3,30.0,30.13,NE,47,2.0,4.0,91,0.00,,---,0.00,VWS V14.01,2013-02-08 06:40:00,
2013-02-08 01:45:00,32.2,29.9,30.13,NE,47,1.0,3.0,91,0.00,,---,0.00,VWS V14.01,2013-02-08 06:45:00,
2013-02-08 01:50:00,32.0,29.9,30.12,NE,47,4.0,4.0,92,0.00,,---,0.00,VWS V14.01,2013-02-08 06:50:00,
2013-02-08 01:55:00,32.0,29.9,30.12,NE,47,0.0,2.0,92,0.00,,---,0.00,VWS V14.01,2013-02-08 06:55:00,
2013-02-08 02:00:00,32.0,29.9,30.12,NE,47,0.0,0.0,92,0.00,,---,0.00,VWS V14.01,2013-02-08 07:00:00,
2013-02-08 02:05:00,31.9,29.8,30.12,NE,47,0.0,1.0,92,0.00,,---,0.00,VWS V14.01,2013-02-08 07:05:00,
2013-02-08 02:10:00,31.9,30.1,30.12,NE,47,0.0,1.0,93,0.00,,---,0.00,VWS V14.01,2013-02-08 07:10:00,
2013-02-08 02:15:00,31.9,30.1,30.12,NE,47,0.0,1.0,93,0.00,,---,0.00,VWS V14.01,2013-02-08 07:15:00,
2013-02-08 02:20:00,31.8,30.0,30.11,NE,47,0.0,0.0,93,0.00,,---,0.00,VWS V14.01,2013-02-08 07:20:00,
2013-02-08 02:25:00,31.8,30.0,30.11,NE,47,0.0,0.0,93,0.00,,---,0.00,VWS V14.01,2013-02-08 07:25:00,
2013-02-08 02:30:00,31.8,30.0,30.11,NE,47,0.0,0.0,93,0.00,,---,0.00,VWS V14.01,2013-02-08 07:30:00,
2013-02-08 02:35:00,31.8,30.0,30.11,NE,47,0.0,0.0,93,0.00,,---,0.00,VWS V14.01,2013-02-08 07:35:00,
2013-02-08 02:40:00,31.6,29.8,30.11,NE,47,0.0,0.0,93,0.00,,---,0.00,VWS V14.01,2013-02-08 07:40:00,
2013-02-08 02:45:00,31.6,29.8,30.11,NE,47,0.0,0.0,93,0.00,,---,0.00,VWS V14.01,2013-02-08 07:45:00,
2013-02-08 02:50:00,31.6,29.8,30.10,NE,47,0.0,0.0,93,0.00,,---,0.00,VWS V14.01,2013-02-08 07:50:00,
2013-02-08 02:55:00,31.6,29.8,30.10,NE,47,0.0,0.0,93,0.00,,---,0.00,VWS V14.01,2013-02-08 07:55:00,
2013-02-08 03:00:00,31.5,30.0,30.10,NE,47,0.0,0.0,94,0.00,,---,0.00,VWS V14.01,2013-02-08 08:00:00,
2013-02-08 03:05:00,31.5,30.0,30.09,NE,47,0.0,0.0,94,0.00,,---,0.00,VWS V14.01,2013-02-08 08:05:00,
2013-02-08 03:10:00,31.5,30.0,30.09,NE,47,0.0,0.0,94,0.00,,---,0.00,VWS V14.01,2013-02-08 08:10:00,
2013-02-08 03:15:00,31.5,30.0,30.09,NE,47,0.0,0.0,94,0.00,,---,0.00,VWS V14.01,2013-02-08 08:15:00,
2013-02-08 03:20:00,31.5,30.0,30.08,NE,47,0.0,0.0,94,0.00,,---,0.00,VWS V14.01,2013-02-08 08:20:00,
2013-02-08 03:25:00,31.3,29.8,30.08,NE,47,0.0,0.0,94,0.00,,---,0.00,VWS V14.01,2013-02-08 08:25:00,
2013-02-08 03:30:00,31.3,29.8,30.08,NE,47,0.0,0.0,94,0.00,,---,0.00,VWS V14.01,2013-02-08 08:30:00,
2013-02-08 03:35:00,31.5,30.0,30.08,NE,47,0.0,0.0,94,0.00,,---,0.00,VWS V14.01,2013-02-08 08:35:00,
2013-02-08 03:40:00,31.5,30.2,30.07,NE,47,0.0,0.0,95,0.00,,---,0.00,VWS V14.01,2013-02-08 08:40:00,
2013-02-08 03:45:00,31.5,30.2,30.07,NE,47,0.0,0.0,95,0.00,,---,0.00,VWS V14.01,2013-02-08 08:45:00,
2013-02-08 03:50:00,31.5,30.2,30.07,NE,47,0.0,0.0,95,0.00,,---,0.00,VWS V14.01,2013-02-08 08:50:00,
2013-02-08 03:55:00,31.5,30.2,30.07,NE,47,0.0,0.0,95,0.00,,---,0.00,VWS V14.01,2013-02-08 08:55:00,
2013-02-08 04:00:00,31.5,30.2,30.07,NE,47,0.0,0.0,95,0.00,,---,0.00,VWS V14.01,2013-02-08 09:00:00,
2013-02-08 04:05:00,31.5,30.2,30.07,NE,47,0.0,0.0,95,0.00,,---,0.00,VWS V14.01,2013-02-08 09:05:00,
2013-02-08 04:10:00,31.5,30.2,30.06,NE,47,0.0,0.0,95,0.00,,---,0.00,VWS V14.01,2013-02-08 09:10:00,
2013-02-08 04:15:00,31.5,30.2,30.06,NE,47,0.0,0.0,95,0.00,,---,0.00,VWS V14.01,2013-02-08 09:15:00,
2013-02-08 04:20:00,31.3,30.0,30.06,NE,47,0.0,0.0,95,0.00,,---,0.00,VWS V14.01,2013-02-08 09:20:00,
2013-02-08 04:25:00,31.5,30.2,30.05,NE,47,0.0,0.0,95,0.00,,---,0.00,VWS V14.01,2013-02-08 09:25:00,
2013-02-08 04:30:00,31.5,30.2,30.05,NE,47,0.0,0.0,95,0.00,,---,0.00,VWS V14.01,2013-02-08 09:30:00,
2013-02-08 04:35:00,31.5,30.2,30.05,NE,47,0.0,0.0,95,0.00,,---,0.00,VWS V14.01,2013-02-08 09:35:00,
2013-02-08 04:40:00,31.5,30.2,30.05,NE,47,0.0,0.0,95,0.00,,---,0.00,VWS V14.01,2013-02-08 09:40:00,
2013-02-08 04:45:00,31.5,30.5,30.05,NE,47,0.0,0.0,96,0.00,,---,0.00,VWS V14.01,2013-02-08 09:45:00,
2013-02-08 04:50:00,31.5,30.5,30.05,NE,47,0.0,0.0,96,0.00,,---,0.00,VWS V14.01,2013-02-08 09:50:00,
2013-02-08 04:55:00,31.6,30.6,30.04,NE,47,0.0,0.0,96,0.00,,---,0.00,VWS V14.01,2013-02-08 09:55:00,
2013-02-08 05:00:00,31.6,30.6,30.04,NE,47,0.0,0.0,96,0.00,,---,0.00,VWS V14.01,2013-02-08 10:00:00,
2013-02-08 05:05:00,31.6,30.6,30.04,NE,47,0.0,0.0,96,0.00,,---,0.00,VWS V14.01,2013-02-08 10:05:00,
2013-02-08 05:10:00,31.6,30.6,30.03,NE,47,0.0,0.0,96,0.01,,---,0.01,VWS V14.01,2013-02-08 10:10:00,
2013-02-08 05:15:00,31.6,30.6,30.03,NE,47,0.0,0.0,96,0.01,,---,0.01,VWS V14.01,2013-02-08 10:15:00,
2013-02-08 05:20:00,31.6,30.6,30.03,NE,47,0.0,0.0,96,0.01,,---,0.01,VWS V14.01,2013-02-08 10:20:00,
2013-02-08 05:25:00,31.5,30.5,30.03,NE,47,0.0,0.0,96,0.01,,---,0.01,VWS V14.01,2013-02-08 10:25:00,
2013-02-08 05:30:00,31.5,30.5,30.03,NE,47,0.0,0.0,96,0.02,,---,0.02,VWS V14.01,2013-02-08 10:30:00,
2013-02-08 05:35:00,31.5,30.5,30.03,NE,47,0.0,0.0,96,0.02,,---,0.02,VWS V14.01,2013-02-08 10:35:00,
2013-02-08 05:40:00,31.5,30.5,30.02,NE,47,0.0,0.0,96,0.02,,---,0.02,VWS V14.01,2013-02-08 10:40:00,
2013-02-08 05:45:00,31.5,30.5,30.02,NE,47,0.0,0.0,96,0.02,,---,0.02,VWS V14.01,2013-02-08 10:45:00,
2013-02-08 05:50:00,31.5,30.5,30.02,NE,47,0.0,0.0,96,0.03,,---,0.03,VWS V14.01,2013-02-08 10:50:00,
2013-02-08 05:55:00,31.5,30.5,30.01,NE,47,0.0,0.0,96,0.03,,---,0.03,VWS V14.01,2013-02-08 10:55:00,
2013-02-08 06:00:00,31.5,30.5,30.01,NE,47,0.0,0.0,96,0.03,,---,0.03,VWS V14.01,2013-02-08 11:00:00,
2013-02-08 06:05:00,31.5,30.5,30.01,NE,47,0.0,0.0,96,0.03,,---,0.03,VWS V14.01,2013-02-08 11:05:00,
2013-02-08 06:10:00,31.5,30.5,30.00,NE,47,0.0,0.0,96,0.03,,---,0.03,VWS V14.01,2013-02-08 11:10:00,
2013-02-08 06:15:00,31.5,30.5,30.00,NE,47,0.0,0.0,96,0.02,,---,0.03,VWS V14.01,2013-02-08 11:15:00,
2013-02-08 06:20:00,31.5,30.5,30.00,NE,47,0.0,0.0,96,0.03,,---,0.04,VWS V14.01,2013-02-08 11:20:00,
2013-02-08 06:25:00,31.5,30.8,30.00,NE,47,0.0,0.0,97,0.03,,---,0.04,VWS V14.01,2013-02-08 11:25:00,
2013-02-08 06:30:00,31.5,30.8,30.00,NE,47,0.0,0.0,97,0.03,,---,0.04,VWS V14.01,2013-02-08 11:30:00,
2013-02-08 06:35:00,31.5,30.8,30.00,NE,47,0.0,0.0,97,0.03,,---,0.05,VWS V14.01,2013-02-08 11:35:00,
2013-02-08 06:40:00,31.5,30.8,29.99,NE,47,0.0,0.0,97,0.03,,---,0.05,VWS V14.01,2013-02-08 11:40:00,
2013-02-08 06:45:00,31.5,30.8,29.99,NE,47,0.0,0.0,97,0.03,,---,0.05,VWS V14.01,2013-02-08 11:45:00,
2013-02-08 06:50:00,31.5,30.8,29.99,NE,47,0.0,0.0,97,0.04,,---,0.06,VWS V14.01,2013-02-08 11:50:00,
2013-02-08 06:55:00,31.5,30.8,29.98,NE,47,0.0,0.0,97,0.03,,---,0.06,VWS V14.01,2013-02-08 11:55:00,
2013-02-08 07:00:00,31.5,30.8,29.98,NE,47,0.0,0.0,97,0.03,,---,0.06,VWS V14.01,2013-02-08 12:00:00,
2013-02-08 07:05:00,31.5,30.8,29.98,NE,47,0.0,0.0,97,0.04,,---,0.07,VWS V14.01,2013-02-08 12:05:00,
2013-02-08 07:10:00,31.5,30.8,29.96,NE,47,0.0,0.0,97,0.04,,---,0.07,VWS V14.01,2013-02-08 12:10:00,
2013-02-08 07:15:00,31.5,30.8,29.96,NE,47,0.0,0.0,97,0.04,,---,0.07,VWS V14.01,2013-02-08 12:15:00,
2013-02-08 07:20:00,31.5,30.8,29.96,NE,47,0.0,0.0,97,0.04,,---,0.07,VWS V14.01,2013-02-08 12:20:00,
2013-02-08 07:25:00,31.5,30.8,29.96,NE,47,0.0,0.0,97,0.03,,---,0.07,VWS V14.01,2013-02-08 12:25:00,
2013-02-08 07:30:00,31.5,30.8,29.96,NE,47,0.0,0.0,97,0.03,,---,0.07,VWS V14.01,2013-02-08 12:30:00,
2013-02-08 07:35:00,31.6,30.9,29.96,NE,47,0.0,0.0,97,0.02,,---,0.07,VWS V14.01,2013-02-08 12:35:00,
2013-02-08 07:40:00,31.8,31.0,29.95,NE,47,0.0,0.0,97,0.02,,---,0.07,VWS V14.01,2013-02-08 12:40:00,
2013-02-08 07:45:00,31.8,31.0,29.95,NE,47,0.0,0.0,97,0.02,,---,0.07,VWS V14.01,2013-02-08 12:45:00,
2013-02-08 07:50:00,31.9,31.1,29.95,NE,47,0.0,0.0,97,0.03,,---,0.08,VWS V14.01,2013-02-08 12:50:00,
2013-02-08 07:55:00,31.9,31.1,29.95,NE,47,0.0,0.0,97,0.02,,---,0.08,VWS V14.01,2013-02-08 12:55:00,
2013-02-08 08:00:00,31.9,31.1,29.95,NE,47,0.0,0.0,97,0.02,,---,0.08,VWS V14.01,2013-02-08 13:00:00,
2013-02-08 08:05:00,31.9,31.1,29.95,NE,47,0.0,0.0,97,0.02,,---,0.08,VWS V14.01,2013-02-08 13:05:00,
2013-02-08 08:10:00,32.0,31.2,29.94,NE,47,0.0,0.0,97,0.01,,---,0.08,VWS V14.01,2013-02-08 13:10:00,
2013-02-08 08:15:00,31.9,31.1,29.94,NE,47,0.0,0.0,97,0.01,,---,0.08,VWS V14.01,2013-02-08 13:15:00,
2013-02-08 08:20:00,32.0,31.5,29.94,ENE,74,0.0,0.0,98,0.02,,---,0.09,VWS V14.01,2013-02-08 13:20:00,
2013-02-08 08:25:00,32.0,31.5,29.93,WNW,301,0.0,0.0,98,0.02,,---,0.09,VWS V14.01,2013-02-08 13:25:00,
2013-02-08 08:30:00,32.0,31.5,29.93,NNE,16,0.0,0.0,98,0.02,,---,0.09,VWS V14.01,2013-02-08 13:30:00,
2013-02-08 08:35:00,32.2,31.7,29.93,NNE,16,0.0,0.0,98,0.02,,---,0.09,VWS V14.01,2013-02-08 13:35:00,
2013-02-08 08:40:00,32.5,32.0,29.93,ESE,121,0.0,0.0,98,0.02,,---,0.09,VWS V14.01,2013-02-08 13:40:00,
2013-02-08 08:45:00,32.8,32.3,29.93,ESE,121,0.0,0.0,98,0.03,,---,0.10,VWS V14.01,2013-02-08 13:45:00,
2013-02-08 08:50:00,32.9,32.4,29.93,ESE,121,0.0,0.0,98,0.03,,---,0.10,VWS V14.01,2013-02-08 13:50:00,
2013-02-08 08:55:00,33.2,32.7,29.92,SSW,202,0.0,1.0,98,0.03,,---,0.11,VWS V14.01,2013-02-08 13:55:00,
2013-02-08 09:00:00,33.5,33.0,29.92,SSW,202,0.0,0.0,98,0.03,,---,0.11,VWS V14.01,2013-02-08 14:00:00,
2013-02-08 09:05:00,33.8,33.3,29.92,SSW,203,0.0,0.0,98,0.04,,---,0.12,VWS V14.01,2013-02-08 14:05:00,
2013-02-08 09:10:00,34.0,33.5,29.91,SSW,203,0.0,0.0,98,0.05,,---,0.13,VWS V14.01,2013-02-08 14:10:00,
2013-02-08 09:15:00,34.1,33.6,29.91,WSW,248,0.0,1.0,98,0.06,,---,0.14,VWS V14.01,2013-02-08 14:15:00,
2013-02-08 09:20:00,34.6,34.1,29.91,WSW,248,0.0,1.0,98,0.07,,---,0.15,VWS V14.01,2013-02-08 14:20:00,
2013-02-08 09:25:00,34.9,34.4,29.90,WSW,248,0.0,2.0,98,0.07,,---,0.16,VWS V14.01,2013-02-08 14:25:00,
2013-02-08 09:30:00,35.9,35.4,29.90,WSW,248,0.0,0.0,98,0.08,,---,0.17,VWS V14.01,2013-02-08 14:30:00,
2013-02-08 09:35:00,36.6,36.1,29.90,WSW,248,0.0,0.0,98,0.09,,---,0.18,VWS V14.01,2013-02-08 14:35:00,
2013-02-08 09:40:00,36.9,35.9,29.89,WSW,248,0.0,0.0,96,0.10,,---,0.19,VWS V14.01,2013-02-08 14:40:00,
2013-02-08 09:45:00,37.9,36.9,29.89,SSW,197,0.0,3.0,96,0.12,,---,0.21,VWS V14.01,2013-02-08 14:45:00,
2013-02-08 09:50:00,38.3,37.0,29.89,SSW,196,1.0,2.0,95,0.12,,---,0.22,VWS V14.01,2013-02-08 14:50:00,
2013-02-08 09:55:00,38.6,37.3,29.89,SW,214,0.0,3.0,95,0.13,,---,0.23,VWS V14.01,2013-02-08 14:55:00,
2013-02-08 10:00:00,38.9,37.6,29.89,SSW,199,2.0,3.0,95,0.13,,---,0.24,VWS V14.01,2013-02-08 15:00:00,
2013-02-08 10:05:00,38.7,37.1,29.89,SE,143,4.0,4.0,94,0.14,,---,0.25,VWS V14.01,2013-02-08 15:05:00,
2013-02-08 10:10:00,38.6,37.0,29.89,North,355,5.0,8.0,94,0.14,,---,0.26,VWS V14.01,2013-02-08 15:10:00,
2013-02-08 10:15:00,38.6,36.8,29.89,NW,324,5.0,6.0,93,0.14,,---,0.27,VWS V14.01,2013-02-08 15:15:00,
2013-02-08 10:20:00,38.6,36.2,29.89,NW,321,10.0,14.0,91,0.13,,---,0.27,VWS V14.01,2013-02-08 15:20:00,
2013-02-08 10:24:00,38.6,35.4,29.88,NNW,329,3.0,15.0,88,0.12,,---,0.27,VWS V14.01,2013-02-08 15:24:00,
2013-02-08 10:25:00,38.7,34.9,29.88,NNW,341,3.0,11.0,86,0.12,,---,0.28,VWS V14.01,2013-02-08 15:25:00,
2013-02-08 10:29:00,38.7,34.9,29.88,NNW,336,6.0,11.0,86,0.11,,---,0.27,VWS V14.01,2013-02-08 15:29:00,
2013-02-08 10:30:00,39.0,34.9,29.87,North,355,6.0,10.0,85,0.11,,---,0.28,VWS V14.01,2013-02-08 15:30:00,
2013-02-08 10:34:00,38.9,35.1,29.88,NW,321,9.0,9.0,86,0.11,,---,0.28,VWS V14.01,2013-02-08 15:34:00,
2013-02-08 10:35:00,39.3,35.5,29.87,NNW,346,2.0,7.0,86,0.09,,---,0.28,VWS V14.01,2013-02-08 15:35:00,
2013-02-08 10:39:00,39.2,35.1,29.87,North,5,2.0,7.0,85,0.09,,---,0.28,VWS V14.01,2013-02-08 15:39:00,
2013-02-08 10:40:00,39.6,35.5,29.87,North,11,0.0,10.0,85,0.08,,---,0.28,VWS V14.01,2013-02-08 15:40:00,
2013-02-08 10:44:00,39.4,35.3,29.87,North,5,2.0,10.0,85,0.08,,---,0.28,VWS V14.01,2013-02-08 15:44:00,
2013-02-08 10:45:00,40.0,35.9,29.87,WNW,284,4.0,6.0,85,0.07,,---,0.28,VWS V14.01,2013-02-08 15:45:00,
2013-02-08 10:49:00,39.9,35.8,29.87,NNW,340,4.0,6.0,85,0.07,,---,0.28,VWS V14.01,2013-02-08 15:49:00,
2013-02-08 10:50:00,40.3,35.9,29.87,North,355,1.0,6.0,84,0.05,,---,0.28,VWS V14.01,2013-02-08 15:50:00,
2013-02-08 10:54:00,40.2,35.8,29.87,NW,324,0.0,6.0,84,0.05,,---,0.28,VWS V14.01,2013-02-08 15:54:00,
2013-02-08 10:55:00,40.6,35.8,29.87,North,5,7.0,7.0,83,0.05,,---,0.28,VWS V14.01,2013-02-08 15:55:00,
2013-02-08 10:59:00,40.4,36.0,29.87,NE,44,3.0,5.0,84,0.05,,---,0.28,VWS V14.01,2013-02-08 15:59:00,
2013-02-08 11:00:00,40.9,36.1,29.86,WSW,257,2.0,7.0,83,0.03,,---,0.28,VWS V14.01,2013-02-08 16:00:00,
2013-02-08 11:04:00,40.7,36.0,29.87,NE,37,0.0,7.0,83,0.03,,---,0.28,VWS V14.01,2013-02-08 16:04:00,
2013-02-08 11:05:00,41.2,36.1,29.86,NNW,345,0.0,3.0,82,0.03,,---,0.28,VWS V14.01,2013-02-08 16:05:00,
2013-02-08 11:09:00,41.0,35.9,29.86,NNW,345,2.0,3.0,82,0.03,,---,0.28,VWS V14.01,2013-02-08 16:09:00,
2013-02-08 11:10:00,41.7,36.9,29.86,SE,146,5.0,6.0,83,0.02,,---,0.28,VWS V14.01,2013-02-08 16:10:00,
2013-02-08 11:14:00,41.4,36.6,29.86,SE,146,3.0,4.0,83,0.02,,---,0.28,VWS V14.01,2013-02-08 16:14:00,
2013-02-08 11:15:00,42.2,38.3,29.85,SSE,154,3.0,5.0,86,0.01,,---,0.28,VWS V14.01,2013-02-08 16:15:00,
2013-02-08 11:19:00,42.0,37.8,29.86,SSE,154,4.0,5.0,85,0.01,,---,0.28,VWS V14.01,2013-02-08 16:19:00,
2013-02-08 11:20:00,42.3,39.0,29.85,SSE,166,2.0,5.0,88,0.01,,---,0.28,VWS V14.01,2013-02-08 16:20:00,
2013-02-08 11:24:00,42.3,38.7,29.85,SSE,165,3.0,4.0,87,0.01,,---,0.28,VWS V14.01,2013-02-08 16:24:00,
2013-02-08 11:25:00,42.4,38.8,29.85,South,185,4.0,5.0,87,0.01,,---,0.28,VWS V14.01,2013-02-08 16:25:00,
2013-02-08 11:29:00,42.3,38.7,29.85,SSE,167,4.0,5.0,87,0.01,,---,0.28,VWS V14.01,2013-02-08 16:29:00,
2013-02-08 11:30:00,42.6,39.0,29.85,SSW,208,10.0,11.0,87,0.00,,---,0.28,VWS V14.01,2013-02-08 16:30:00,
2013-02-08 11:34:00,42.6,39.3,29.85,SSW,213,6.0,11.0,88,0.00,,---,0.28,VWS V14.01,2013-02-08 16:34:00,
2013-02-08 11:35:00,42.6,38.4,29.85,SSW,205,4.0,11.0,85,0.00,,---,0.28,VWS V14.01,2013-02-08 16:35:00,
2013-02-08 11:39:00,42.6,38.7,29.85,SSW,212,8.0,11.0,86,0.00,,---,0.28,VWS V14.01,2013-02-08 16:39:00,
2013-02-08 11:40:00,42.6,38.1,29.85,SSW,207,4.0,6.0,84,0.00,,---,0.28,VWS V14.01,2013-02-08 16:40:00,
2013-02-08 11:44:00,42.6,38.4,29.85,SSW,207,1.0,6.0,85,0.00,,---,0.28,VWS V14.01,2013-02-08 16:44:00,
2013-02-08 11:45:00,42.7,37.9,29.85,SW,224,3.0,7.0,83,0.00,,---,0.28,VWS V14.01,2013-02-08 16:45:00,
2013-02-08 11:49:00,42.6,38.1,29.85,SW,229,4.0,7.0,84,0.00,,---,0.28,VWS V14.01,2013-02-08 16:49:00,
2013-02-08 11:50:00,42.7,37.9,29.85,WSW,247,3.0,6.0,83,0.00,,---,0.28,VWS V14.01,2013-02-08 16:50:00,
2013-02-08 11:54:00,42.7,38.2,29.85,West,281,0.0,6.0,84,0.00,,---,0.28,VWS V14.01,2013-02-08 16:54:00,
2013-02-08 11:55:00,42.6,37.8,29.85,SE,132,1.0,5.0,83,0.00,,---,0.28,VWS V14.01,2013-02-08 16:55:00,
2013-02-08 11:59:00,42.7,37.9,29.85,SE,132,5.0,5.0,83,0.00,,---,0.28,VWS V14.01,2013-02-08 16:59:00,
2013-02-08 12:00:00,42.4,37.6,29.84,SE,132,0.0,2.0,83,0.00,,---,0.28,VWS V14.01,2013-02-08 17:00:00,
2013-02-08 12:04:00,42.6,37.8,29.85,SE,132,0.0,2.0,83,0.00,,---,0.28,VWS V14.01,2013-02-08 17:04:00,
2013-02-08 12:05:00,42.4,37.3,29.84,SE,132,0.0,1.0,82,0.00,,---,0.28,VWS V14.01,2013-02-08 17:05:00,
2013-02-08 12:09:00,42.4,37.3,29.84,SE,132,0.0,1.0,82,0.00,,---,0.28,VWS V14.01,2013-02-08 17:09:00,
2013-02-08 12:10:00,42.3,36.9,29.84,North,355,1.0,5.0,81,0.00,,---,0.28,VWS V14.01,2013-02-08 17:10:00,
2013-02-08 12:14:00,42.4,37.3,29.84,North,355,4.0,5.0,82,0.00,,---,0.28,VWS V14.01,2013-02-08 17:14:00,
2013-02-08 12:15:00,42.3,36.6,29.83,NNW,345,2.0,5.0,80,0.00,,---,0.28,VWS V14.01,2013-02-08 17:15:00,
2013-02-08 12:19:00,42.3,36.6,29.84,NNW,345,1.0,5.0,80,0.00,,---,0.28,VWS V14.01,2013-02-08 17:19:00,
2013-02-08 12:20:00,42.3,36.6,29.83,NW,306,4.0,4.0,80,0.00,,---,0.28,VWS V14.01,2013-02-08 17:20:00,
2013-02-08 12:24:00,42.3,36.6,29.83,East,82,2.0,4.0,80,0.00,,---,0.28,VWS V14.01,2013-02-08 17:24:00,
2013-02-08 12:25:00,42.4,36.7,29.83,West,276,5.0,5.0,80,0.00,,---,0.28,VWS V14.01,2013-02-08 17:25:00,
2013-02-08 12:29:00,42.3,36.6,29.83,NNE,23,0.0,5.0,80,0.00,,---,0.28,VWS V14.01,2013-02-08 17:29:00,
2013-02-08 12:30:00,42.7,36.7,29.82,SW,236,5.0,5.0,79,0.00,,---,0.28,VWS V14.01,2013-02-08 17:30:00,
2013-02-08 12:34:00,42.6,36.9,29.83,WSW,245,1.0,5.0,80,0.00,,---,0.28,VWS V14.01,2013-02-08 17:34:00,
2013-02-08 12:35:00,42.9,36.8,29.82,WSW,257,3.0,10.0,79,0.00,,---,0.28,VWS V14.01,2013-02-08 17:35:00,
2013-02-08 12:39:00,42.9,36.8,29.82,SW,222,4.0,10.0,79,0.00,,---,0.28,VWS V14.01,2013-02-08 17:39:00,
2013-02-08 12:40:00,42.9,36.5,29.82,WNW,296,3.0,5.0,78,0.00,,---,0.28,VWS V14.01,2013-02-08 17:40:00,
2013-02-08 12:44:00,42.9,36.5,29.82,WNW,297,2.0,5.0,78,0.00,,---,0.28,VWS V14.01,2013-02-08 17:44:00,
2013-02-08 12:45:00,42.9,36.5,29.82,WNW,302,2.0,4.0,78,0.00,,---,0.28,VWS V14.01,2013-02-08 17:45:00,
2013-02-08 12:49:00,42.9,36.2,29.82,NNW,347,3.0,4.0,77,0.00,,---,0.28,VWS V14.01,2013-02-08 17:49:00,
2013-02-08 12:50:00,43.0,36.3,29.82,NNW,329,2.0,5.0,77,0.00,,---,0.28,VWS V14.01,2013-02-08 17:50:00,
2013-02-08 12:54:00,43.0,36.3,29.82,NNW,329,0.0,5.0,77,0.00,,---,0.28,VWS V14.01,2013-02-08 17:54:00,
2013-02-08 12:55:00,43.3,37.2,29.82,SSE,160,4.0,4.0,79,0.00,,---,0.28,VWS V14.01,2013-02-08 17:55:00,
2013-02-08 12:59:00,43.3,36.9,29.82,ESE,107,1.0,3.0,78,0.00,,---,0.28,VWS V14.01,2013-02-08 17:59:00,
2013-02-08 13:00:00,43.4,37.0,29.81,SSE,161,2.0,4.0,78,0.00,,---,0.28,VWS V14.01,2013-02-08 18:00:00,
2013-02-08 13:04:00,43.4,37.0,29.82,SSE,161,3.0,4.0,78,0.00,,---,0.28,VWS V14.01,2013-02-08 18:04:00,
2013-02-08 13:05:00,43.7,37.3,29.81,SSW,203,2.0,6.0,78,0.00,,---,0.28,VWS V14.01,2013-02-08 18:05:00,
2013-02-08 13:09:00,43.6,37.2,29.81,SSW,203,0.0,6.0,78,0.00,,---,0.28,VWS V14.01,2013-02-08 18:09:00,
2013-02-08 13:10:00,44.2,37.5,29.81,SSW,203,0.0,2.0,77,0.00,,---,0.28,VWS V14.01,2013-02-08 18:10:00,
2013-02-08 13:14:00,44.0,37.3,29.81,SSW,203,0.0,2.0,77,0.00,,---,0.28,VWS V14.01,2013-02-08 18:14:00,
2013-02-08 13:15:00,44.5,37.4,29.81,SSW,203,3.0,4.0,76,0.00,,---,0.28,VWS V14.01,2013-02-08 18:15:00,
2013-02-08 13:19:00,44.5,37.8,29.81,SSW,203,2.0,4.0,77,0.00,,---,0.28,VWS V14.01,2013-02-08 18:19:00,
2013-02-08 13:20:00,44.6,37.5,29.81,SSW,202,2.0,3.0,76,0.00,,---,0.28,VWS V14.01,2013-02-08 18:20:00,
2013-02-08 13:24:00,44.6,37.8,29.81,SSW,203,3.0,3.0,77,0.00,,---,0.28,VWS V14.01,2013-02-08 18:24:00,
2013-02-08 13:25:00,44.5,37.8,29.81,SSW,193,3.0,5.0,77,0.00,,---,0.28,VWS V14.01,2013-02-08 18:25:00,
2013-02-08 13:29:00,44.6,37.5,29.81,SSW,202,3.0,5.0,76,0.00,,---,0.28,VWS V14.01,2013-02-08 18:29:00,
2013-02-08 13:30:00,44.3,37.6,29.79,South,171,3.0,5.0,77,0.00,,---,0.28,VWS V14.01,2013-02-08 18:30:00,
2013-02-08 13:34:00,44.3,37.6,29.81,South,171,4.0,5.0,77,0.00,,---,0.28,VWS V14.01,2013-02-08 18:34:00,
2013-02-08 13:35:00,44.3,38.2,29.79,South,171,4.0,4.0,79,0.00,,---,0.28,VWS V14.01,2013-02-08 18:35:00,
2013-02-08 13:40:00,44.3,37.9,29.79,South,171,0.0,4.0,78,0.00,,---,0.28,VWS V14.01,2013-02-08 18:40:00,
2013-02-08 13:45:00,44.3,38.2,29.79,South,171,3.0,4.0,79,0.00,,---,0.28,VWS V14.01,2013-02-08 18:45:00,
2013-02-08 13:50:00,44.3,37.9,29.79,South,171,0.0,1.0,78,0.00,,---,0.28,VWS V14.01,2013-02-08 18:50:00,
2013-02-08 13:55:00,44.5,38.1,29.79,South,171,0.0,3.0,78,0.00,,---,0.28,VWS V14.01,2013-02-08 18:55:00,
2013-02-08 14:00:00,44.6,37.2,29.79,WSW,257,2.0,5.0,75,0.00,,---,0.28,VWS V14.01,2013-02-08 19:00:00,
2013-02-08 14:05:00,44.9,37.5,29.79,SW,230,0.0,5.0,75,0.00,,---,0.28,VWS V14.01,2013-02-08 19:05:00,
2013-02-08 14:10:00,45.1,36.6,29.79,SW,230,4.0,4.0,72,0.00,,---,0.28,VWS V14.01,2013-02-08 19:10:00,
2013-02-08 14:15:00,45.3,36.8,29.79,SW,230,1.0,1.0,72,0.00,,---,0.28,VWS V14.01,2013-02-08 19:15:00,
2013-02-08 14:20:00,45.3,36.8,29.79,SW,230,0.0,2.0,72,0.00,,---,0.28,VWS V14.01,2013-02-08 19:20:00,
2013-02-08 14:25:00,45.6,38.2,29.79,SW,230,0.0,2.0,75,0.00,,---,0.28,VWS V14.01,2013-02-08 19:25:00,
2013-02-08 14:30:00,45.9,39.1,29.79,SSW,205,4.0,4.0,77,0.00,,---,0.28,VWS V14.01,2013-02-08 19:30:00,
2013-02-08 14:35:00,46.5,40.0,29.79,SE,145,3.0,5.0,78,0.00,,---,0.28,VWS V14.01,2013-02-08 19:35:00,
2013-02-08 14:40:00,46.5,39.0,29.78,East,99,1.0,6.0,75,0.00,,---,0.28,VWS V14.01,2013-02-08 19:40:00,
2013-02-08 14:45:00,46.5,39.4,29.78,ESE,121,1.0,5.0,76,0.00,,---,0.28,VWS V14.01,2013-02-08 19:45:00,
2013-02-08 14:50:00,46.4,38.9,29.78,ESE,120,2.0,3.0,75,0.00,,---,0.28,VWS V14.01,2013-02-08 19:50:00,
2013-02-08 14:55:00,45.9,38.8,29.78,East,101,3.0,5.0,76,0.00,,---,0.28,VWS V14.01,2013-02-08 19:55:00,
2013-02-08 15:00:00,45.5,37.4,29.78,NNE,17,5.0,9.0,73,0.00,,---,0.28,VWS V14.01,2013-02-08 20:00:00,
2013-02-08 15:05:00,45.2,37.4,29.78,NNW,331,3.0,8.0,74,0.00,,---,0.28,VWS V14.01,2013-02-08 20:05:00,
2013-02-08 15:10:00,45.1,37.0,29.78,North,355,7.0,9.0,73,0.00,,---,0.28,VWS V14.01,2013-02-08 20:10:00,
2013-02-08 15:15:00,44.9,37.1,29.78,North,9,4.0,10.0,74,0.00,,---,0.28,VWS V14.01,2013-02-08 20:15:00,
2013-02-08 15:20:00,45.2,37.1,29.78,WNW,300,0.0,10.0,73,0.00,,---,0.28,VWS V14.01,2013-02-08 20:20:00,
2013-02-08 15:25:00,45.8,37.7,29.78,WSW,257,6.0,7.0,73,0.00,,---,0.28,VWS V14.01,2013-02-08 20:25:00,
2013-02-08 15:30:00,46.4,37.2,29.78,North,360,5.0,11.0,70,0.00,,---,0.28,VWS V14.01,2013-02-08 20:30:00,
2013-02-08 15:35:00,46.5,37.6,29.78,NNW,346,7.0,10.0,71,0.00,,---,0.28,VWS V14.01,2013-02-08 20:35:00,
2013-02-08 15:40:00,46.5,37.3,29.79,NW,313,6.0,11.0,70,0.00,,---,0.28,VWS V14.01,2013-02-08 20:40:00,
2013-02-08 15:45:00,46.2,37.3,29.79,NW,309,6.0,10.0,71,0.00,,---,0.28,VWS V14.01,2013-02-08 20:45:00,
2013-02-08 15:50:00,45.8,37.0,29.79,NNW,333,5.0,12.0,71,0.00,,---,0.28,VWS V14.01,2013-02-08 20:50:00,
2013-02-08 15:55:00,45.6,37.1,29.79,North,355,5.0,7.0,72,0.00,,---,0.28,VWS V14.01,2013-02-08 20:55:00,
2013-02-08 16:00:00,45.8,38.0,29.79,NW,306,10.0,10.0,74,0.00,,---,0.28,VWS V14.01,2013-02-08 21:00:00,
2013-02-08 16:05:00,45.5,38.0,29.79,North,9,7.0,12.0,75,0.00,,---,0.28,VWS V14.01,2013-02-08 21:05:00,
2013-02-08 16:10:00,44.9,38.1,29.80,NNW,338,9.0,11.0,77,0.00,,---,0.28,VWS V14.01,2013-02-08 21:10:00,
2013-02-08 16:15:00,44.6,38.2,29.80,NNE,12,5.0,13.0,78,0.00,,---,0.28,VWS V14.01,2013-02-08 21:15:00,
2013-02-08 16:20:00,44.2,37.8,29.80,NNE,22,10.0,13.0,78,0.01,,---,0.29,VWS V14.01,2013-02-08 21:20:00,
2013-02-08 16:25:00,43.6,37.5,29.81,NNE,26,16.0,16.0,79,0.01,,---,0.29,VWS V14.01,2013-02-08 21:25:00,
2013-02-08 16:30:00,42.9,37.2,29.81,NNE,26,14.0,15.0,80,0.01,,---,0.29,VWS V14.01,2013-02-08 21:30:00,
2013-02-08 16:35:00,42.4,37.3,29.81,NNE,12,11.0,11.0,82,0.01,,---,0.29,VWS V14.01,2013-02-08 21:35:00,
2013-02-08 16:40:00,42.4,37.6,29.82,NE,34,9.0,14.0,83,0.01,,---,0.29,VWS V14.01,2013-02-08 21:40:00,
2013-02-08 16:45:00,42.6,37.2,29.82,NW,306,7.0,14.0,81,0.01,,---,0.29,VWS V14.01,2013-02-08 21:45:00,
2013-02-08 16:50:00,42.6,36.9,29.82,NW,317,3.0,18.0,80,0.01,,---,0.29,VWS V14.01,2013-02-08 21:50:00,
2013-02-08 16:55:00,42.6,36.5,29.82,WNW,286,7.0,15.0,79,0.01,,---,0.29,VWS V14.01,2013-02-08 21:55:00,
2013-02-08 17:00:00,42.6,36.2,29.82,NNW,334,6.0,14.0,78,0.01,,---,0.29,VWS V14.01,2013-02-08 22:00:00,
2013-02-08 17:05:00,42.6,35.6,29.82,North,9,5.0,17.0,76,0.01,,---,0.29,VWS V14.01,2013-02-08 22:05:00,
2013-02-08 17:10:00,42.6,35.2,29.83,NW,309,7.0,13.0,75,0.01,,---,0.29,VWS V14.01,2013-02-08 22:10:00,
2013-02-08 17:15:00,42.7,34.7,29.83,NW,320,8.0,13.0,73,0.01,,---,0.29,VWS V14.01,2013-02-08 22:15:00,
2013-02-08 17:20:00,42.7,33.6,29.83,West,280,6.0,17.0,70,0.00,,---,0.29,VWS V14.01,2013-02-08 22:20:00,
2013-02-08 17:25:00,42.7,32.5,29.84,WNW,286,12.0,17.0,67,0.00,,---,0.29,VWS V14.01,2013-02-08 22:25:00,
2013-02-08 17:30:00,42.7,31.8,29.84,NW,307,3.0,17.0,65,0.00,,---,0.29,VWS V14.01,2013-02-08 22:30:00,
2013-02-08 17:35:00,42.7,31.4,29.84,NW,307,13.0,13.0,64,0.00,,---,0.29,VWS V14.01,2013-02-08 22:35:00,
2013-02-08 17:40:00,42.6,30.1,29.84,WNW,290,15.0,15.0,61,0.00,,---,0.29,VWS V14.01,2013-02-08 22:40:00,
2013-02-08 17:45:00,42.6,29.7,29.84,NW,315,10.0,14.0,60,0.00,,---,0.29,VWS V14.01,2013-02-08 22:45:00,
2013-02-08 17:50:00,42.3,29.0,29.84,NNW,331,12.0,20.0,59,0.00,,---,0.29,VWS V14.01,2013-02-08 22:50:00,
2013-02-08 17:55:00,42.2,28.5,29.84,NW,310,11.0,21.0,58,0.00,,---,0.29,VWS V14.01,2013-02-08 22:55:00,
2013-02-08 18:00:00,42.2,28.9,29.84,WNW,290,10.0,16.0,59,0.00,,---,0.29,VWS V14.01,2013-02-08 23:00:00,
2013-02-08 18:05:00,42.0,28.3,29.84,WSW,254,6.0,13.0,58,0.00,,---,0.29,VWS V14.01,2013-02-08 23:05:00,
2013-02-08 18:10:00,41.7,28.0,29.84,NW,309,3.0,20.0,58,0.00,,---,0.29,VWS V14.01,2013-02-08 23:10:00,
2013-02-08 18:15:00,41.4,28.2,29.86,West,268,2.0,8.0,59,0.00,,---,0.29,VWS V14.01,2013-02-08 23:15:00,
2013-02-08 18:17:00,41.4,28.2,29.84,South,186,0.0,8.0,59,0.00,,---,0.29,VWS V14.01,2013-02-08 23:17:00,
2013-02-08 18:20:00,41.3,28.1,29.86,NNE,28,5.0,16.0,59,0.00,,---,0.29,VWS V14.01,2013-02-08 23:20:00,
2013-02-08 18:22:00,41.4,28.6,29.86,West,273,10.0,10.0,60,0.00,,---,0.29,VWS V14.01,2013-02-08 23:22:00,
2013-02-08 18:25:00,41.3,28.1,29.86,SE,142,1.0,8.0,59,0.00,,---,0.29,VWS V14.01,2013-02-08 23:25:00,
2013-02-08 18:27:00,41.3,28.1,29.86,NNE,32,2.0,5.0,59,0.00,,---,0.29,VWS V14.01,2013-02-08 23:27:00,
2013-02-08 18:30:00,41.2,28.0,29.87,WNW,298,11.0,17.0,59,0.00,,---,0.29,VWS V14.01,2013-02-08 23:30:00,
2013-02-08 18:32:00,41.3,28.1,29.86,NNE,29,9.0,9.0,59,0.00,,---,0.29,VWS V14.01,2013-02-08 23:32:00,
2013-02-08 18:35:00,41.2,28.0,29.87,SW,227,2.0,18.0,59,0.00,,---,0.29,VWS V14.01,2013-02-08 23:35:00,
2013-02-08 18:37:00,41.2,28.0,29.87,WNW,302,9.0,11.0,59,0.00,,---,0.29,VWS V14.01,2013-02-08 23:37:00,
2013-02-08 18:40:00,41.0,27.8,29.87,East,80,1.0,12.0,59,0.00,,---,0.29,VWS V14.01,2013-02-08 23:40:00,
2013-02-08 18:42:00,41.0,27.8,29.87,NNW,329,7.0,9.0,59,0.00,,---,0.29,VWS V14.01,2013-02-08 23:42:00,
2013-02-08 18:45:00,40.9,27.7,29.88,WNW,294,10.0,17.0,59,0.00,,---,0.29,VWS V14.01,2013-02-08 23:45:00,
2013-02-08 18:47:00,40.9,27.7,29.87,East,80,2.0,2.0,59,0.00,,---,0.29,VWS V14.01,2013-02-08 23:47:00,
2013-02-08 18:50:00,40.7,27.1,29.88,WNW,302,6.0,20.0,58,0.00,,---,0.29,VWS V14.01,2013-02-08 23:50:00,
2013-02-08 18:52:00,40.9,27.3,29.88,WSW,239,8.0,20.0,58,0.00,,---,0.29,VWS V14.01,2013-02-08 23:52:00,
2013-02-08 18:55:00,40.6,27.0,29.88,WNW,301,6.0,23.0,58,0.00,,---,0.29,VWS V14.01,2013-02-08 23:55:00,
2013-02-08 18:57:00,40.7,27.5,29.88,NW,325,5.0,10.0,59,0.00,,---,0.29,VWS V14.01,2013-02-08 23:57:00,
2013-02-08 19:00:00,40.4,26.8,29.88,North,360,10.0,13.0,58,0.00,,---,0.29,VWS V14.01,2013-02-09 00:00:00,
2013-02-08 19:02:00,40.6,27.0,29.88,WNW,288,8.0,12.0,58,0.00,,---,0.29,VWS V14.01,2013-02-09 00:02:00,
2013-02-08 19:05:00,40.3,27.1,29.88,WNW,287,16.0,16.0,59,0.00,,---,0.29,VWS V14.01,2013-02-09 00:05:00,
2013-02-08 19:07:00,40.4,26.8,29.88,NW,313,12.0,12.0,58,0.00,,---,0.29,VWS V14.01,2013-02-09 00:07:00,
2013-02-08 19:10:00,40.2,26.6,29.88,NNE,17,9.0,22.0,58,0.00,,---,0.29,VWS V14.01,2013-02-09 00:10:00,
2013-02-08 19:12:00,40.2,27.0,29.88,NW,325,3.0,22.0,59,0.00,,---,0.29,VWS V14.01,2013-02-09 00:12:00,
2013-02-08 19:15:00,40.0,26.4,29.88,WSW,241,16.0,22.0,58,0.00,,---,0.29,VWS V14.01,2013-02-09 00:15:00,
2013-02-08 19:17:00,40.2,26.6,29.88,NW,309,11.0,16.0,58,0.00,,---,0.29,VWS V14.01,2013-02-09 00:17:00,
2013-02-08 19:20:00,39.9,26.3,29.88,West,272,2.0,17.0,58,0.00,,---,0.29,VWS V14.01,2013-02-09 00:20:00,
2013-02-08 19:22:00,40.0,26.4,29.88,NW,317,12.0,17.0,58,0.00,,---,0.29,VWS V14.01,2013-02-09 00:22:00,
2013-02-08 19:25:00,39.7,26.1,29.88,North,360,5.0,16.0,58,0.00,,---,0.29,VWS V14.01,2013-02-09 00:25:00,
2013-02-08 19:27:00,39.9,26.3,29.88,WSW,248,6.0,10.0,58,0.00,,---,0.29,VWS V14.01,2013-02-09 00:27:00,
2013-02-08 19:30:00,39.4,25.5,29.89,NNW,346,9.0,18.0,57,0.00,,---,0.29,VWS V14.01,2013-02-09 00:30:00,
2013-02-08 19:32:00,39.6,26.1,29.88,West,277,10.0,10.0,58,0.00,,---,0.29,VWS V14.01,2013-02-09 00:32:00,
2013-02-08 19:35:00,39.4,25.5,29.89,North,355,4.0,10.0,57,0.00,,---,0.29,VWS V14.01,2013-02-09 00:35:00,
2013-02-08 19:37:00,39.4,25.5,29.89,WNW,298,5.0,10.0,57,0.00,,---,0.29,VWS V14.01,2013-02-09 00:37:00,
2013-02-08 19:40:00,39.4,25.0,29.89,WNW,286,15.0,24.0,56,0.00,,---,0.29,VWS V14.01,2013-02-09 00:40:00,
2013-02-08 19:42:00,39.4,25.0,29.89,North,355,7.0,7.0,56,0.00,,---,0.29,VWS V14.01,2013-02-09 00:42:00,
2013-02-08 19:45:00,39.3,24.9,29.90,NNE,28,6.0,20.0,56,0.00,,---,0.29,VWS V14.01,2013-02-09 00:45:00,
2013-02-08 19:47:00,39.4,24.6,29.89,NNW,341,14.0,20.0,55,0.00,,---,0.29,VWS V14.01,2013-02-09 00:47:00,
2013-02-08 19:50:00,39.2,24.8,29.90,West,277,2.0,21.0,56,0.00,,---,0.29,VWS V14.01,2013-02-09 00:50:00,
2013-02-08 19:52:00,39.3,24.9,29.90,WNW,286,9.0,10.0,56,0.00,,---,0.29,VWS V14.01,2013-02-09 00:52:00,
2013-02-08 19:55:00,39.0,24.2,29.90,North,350,2.0,16.0,55,0.00,,---,0.29,VWS V14.01,2013-02-09 00:55:00,
2013-02-08 19:57:00,39.0,24.6,29.90,North,349,3.0,15.0,56,0.00,,---,0.29,VWS V14.01,2013-02-09 00:57:00,
2013-02-08 20:00:00,38.9,24.1,29.89,NW,323,4.0,21.0,55,0.00,,---,0.29,VWS V14.01,2013-02-09 01:00:00,
2013-02-08 20:02:00,39.0,24.2,29.90,West,259,7.0,9.0,55,0.00,,---,0.29,VWS V14.01,2013-02-09 01:02:00,
2013-02-08 20:05:00,38.9,24.1,29.89,NW,313,6.0,18.0,55,0.00,,---,0.29,VWS V14.01,2013-02-09 01:05:00,
2013-02-08 20:07:00,38.9,24.1,29.89,NNW,329,11.0,16.0,55,0.00,,---,0.29,VWS V14.01,2013-02-09 01:07:00,
2013-02-08 20:10:00,38.7,23.9,29.89,NNW,330,11.0,15.0,55,0.00,,---,0.29,VWS V14.01,2013-02-09 01:10:00,
2013-02-08 20:12:00,38.7,23.9,29.89,WSW,244,6.0,15.0,55,0.00,,---,0.29,VWS V14.01,2013-02-09 01:12:00,
2013-02-08 20:15:00,38.6,23.4,29.89,WSW,254,12.0,23.0,54,0.00,,---,0.29,VWS V14.01,2013-02-09 01:15:00,
2013-02-08 20:17:00,38.7,23.9,29.89,NW,315,8.0,19.0,55,0.00,,---,0.29,VWS V14.01,2013-02-09 01:17:00,
2013-02-08 20:20:00,38.6,23.4,29.89,North,355,11.0,13.0,54,0.00,,---,0.29,VWS V14.01,2013-02-09 01:20:00,
2013-02-08 20:22:00,38.6,23.4,29.89,North,355,3.0,12.0,54,0.00,,---,0.29,VWS V14.01,2013-02-09 01:22:00,
2013-02-08 20:25:00,38.4,23.2,29.89,SSW,204,4.0,14.0,54,0.00,,---,0.29,VWS V14.01,2013-02-09 01:25:00,
2013-02-08 20:27:00,38.6,23.8,29.89,NNW,337,7.0,14.0,55,0.00,,---,0.29,VWS V14.01,2013-02-09 01:27:00,
2013-02-08 20:30:00,38.3,23.6,29.90,NNW,342,12.0,24.0,55,0.00,,---,0.29,VWS V14.01,2013-02-09 01:30:00,
2013-02-08 20:32:00,38.4,23.7,29.89,WNW,290,7.0,14.0,55,0.00,,---,0.29,VWS V14.01,2013-02-09 01:32:00,
2013-02-08 20:35:00,38.2,23.5,29.90,WNW,290,11.0,15.0,55,0.00,,---,0.29,VWS V14.01,2013-02-09 01:35:00,
2013-02-08 20:37:00,38.3,23.6,29.90,North,9,1.0,12.0,55,0.00,,---,0.29,VWS V14.01,2013-02-09 01:37:00,
2013-02-08 20:40:00,38.2,23.5,29.90,NNW,342,5.0,14.0,55,0.00,,---,0.29,VWS V14.01,2013-02-09 01:40:00,
2013-02-08 20:42:00,38.2,23.5,29.90,NE,42,3.0,11.0,55,0.00,,---,0.29,VWS V14.01,2013-02-09 01:42:00,
2013-02-08 20:45:00,38.0,22.9,29.91,NW,304,11.0,25.0,54,0.00,,---,0.29,VWS V14.01,2013-02-09 01:45:00,
2013-02-08 20:47:00,38.0,23.3,29.90,WNW,292,4.0,9.0,55,0.00,,---,0.29,VWS V14.01,2013-02-09 01:47:00,
2013-02-08 20:50:00,38.0,22.4,29.91,WNW,293,2.0,16.0,53,0.00,,---,0.29,VWS V14.01,2013-02-09 01:50:00,
2013-02-08 20:52:00,38.0,22.9,29.91,SW,231,4.0,12.0,54,0.00,,---,0.29,VWS V14.01,2013-02-09 01:52:00,
2013-02-08 20:55:00,38.0,22.4,29.91,WNW,302,9.0,19.0,53,0.00,,---,0.29,VWS V14.01,2013-02-09 01:55:00,
2013-02-08 20:57:00,38.0,22.4,29.91,NNW,329,17.0,17.0,53,0.00,,---,0.29,VWS V14.01,2013-02-09 01:57:00,
2013-02-08 21:00:00,37.9,22.3,29.91,NW,319,4.0,15.0,53,0.00,,---,0.29,VWS V14.01,2013-02-09 02:00:00,
2013-02-08 21:02:00,38.0,22.4,29.91,WNW,296,6.0,9.0,53,0.00,,---,0.29,VWS V14.01,2013-02-09 02:02:00,
2013-02-08 21:05:00,37.7,22.1,29.91,NW,310,9.0,30.0,53,0.00,,---,0.29,VWS V14.01,2013-02-09 02:05:00,
2013-02-08 21:07:00,37.9,22.3,29.91,South,185,0.0,7.0,53,0.00,,---,0.29,VWS V14.01,2013-02-09 02:07:00,
2013-02-08 21:10:00,37.7,22.1,29.91,WNW,300,5.0,14.0,53,0.00,,---,0.29,VWS V14.01,2013-02-09 02:10:00,
2013-02-08 21:12:00,37.7,22.1,29.91,NW,314,5.0,12.0,53,0.00,,---,0.29,VWS V14.01,2013-02-09 02:12:00,
2013-02-08 21:15:00,37.6,22.5,29.92,NNW,331,3.0,14.0,54,0.00,,---,0.29,VWS V14.01,2013-02-09 02:15:00,
2013-02-08 21:17:00,37.7,22.6,29.91,WSW,257,10.0,10.0,54,0.00,,---,0.29,VWS V14.01,2013-02-09 02:17:00,
2013-02-08 21:20:00,37.4,22.3,29.92,West,262,15.0,15.0,54,0.00,,---,0.29,VWS V14.01,2013-02-09 02:20:00,
2013-02-08 21:22:00,37.6,22.5,29.92,NNW,341,11.0,11.0,54,0.00,,---,0.29,VWS V14.01,2013-02-09 02:22:00,
2013-02-08 21:25:00,37.4,22.3,29.92,WSW,255,8.0,28.0,54,0.00,,---,0.29,VWS V14.01,2013-02-09 02:25:00,
2013-02-08 21:27:00,37.4,22.3,29.92,WNW,289,13.0,20.0,54,0.00,,---,0.29,VWS V14.01,2013-02-09 02:27:00,
2013-02-08 21:30:00,37.3,22.2,29.92,WNW,290,12.0,20.0,54,0.00,,---,0.29,VWS V14.01,2013-02-09 02:30:00,
2013-02-08 21:32:00,37.4,22.3,29.92,WSW,250,12.0,15.0,54,0.00,,---,0.29,VWS V14.01,2013-02-09 02:32:00,
2013-02-08 21:35:00,37.3,22.2,29.92,WNW,300,13.0,24.0,54,0.00,,---,0.29,VWS V14.01,2013-02-09 02:35:00,
2013-02-08 21:37:00,37.3,22.2,29.92,NW,307,3.0,12.0,54,0.00,,---,0.29,VWS V14.01,2013-02-09 02:37:00,
2013-02-08 21:40:00,37.3,22.2,29.92,NNE,22,14.0,22.0,54,0.00,,---,0.29,VWS V14.01,2013-02-09 02:40:00,
2013-02-08 21:42:00,37.3,22.2,29.92,NW,315,6.0,13.0,54,0.00,,---,0.29,VWS V14.01,2013-02-09 02:42:00,
2013-02-08 21:45:00,37.1,23.7,29.91,NNW,330,5.0,28.0,58,0.00,,---,0.29,VWS V14.01,2013-02-09 02:45:00,
2013-02-08 21:47:00,37.1,22.0,29.92,NNW,347,22.0,22.0,54,0.00,,---,0.29,VWS V14.01,2013-02-09 02:47:00,
2013-02-08 21:50:00,37.0,22.4,29.91,NNW,339,8.0,20.0,55,0.00,,---,0.29,VWS V14.01,2013-02-09 02:50:00,
2013-02-08 21:52:00,37.0,22.4,29.91,NNW,347,7.0,9.0,55,0.00,,---,0.29,VWS V14.01,2013-02-09 02:52:00,
2013-02-08 21:55:00,36.9,22.3,29.91,SW,232,6.0,27.0,55,0.00,,---,0.29,VWS V14.01,2013-02-09 02:55:00,
2013-02-08 21:57:00,36.9,22.3,29.91,WNW,296,11.0,16.0,55,0.00,,---,0.29,VWS V14.01,2013-02-09 02:57:00,
2013-02-08 22:00:00,36.7,22.1,29.92,West,263,11.0,21.0,55,0.00,,---,0.29,VWS V14.01,2013-02-09 03:00:00,
2013-02-08 22:02:00,36.9,22.3,29.91,NW,319,10.0,11.0,55,0.00,,---,0.29,VWS V14.01,2013-02-09 03:02:00,
2013-02-08 22:05:00,36.7,22.1,29.92,NW,306,5.0,31.0,55,0.00,,---,0.29,VWS V14.01,2013-02-09 03:05:00,
2013-02-08 22:07:00,36.7,22.1,29.92,WNW,292,15.0,29.0,55,0.00,,---,0.29,VWS V14.01,2013-02-09 03:07:00,
2013-02-08 22:10:00,36.6,22.4,29.92,WSW,257,21.0,23.0,56,0.00,,---,0.29,VWS V14.01,2013-02-09 03:10:00,
2013-02-08 22:12:00,36.7,22.1,29.92,WSW,257,16.0,18.0,55,0.00,,---,0.29,VWS V14.01,2013-02-09 03:12:00,
2013-02-08 22:15:00,36.6,22.4,29.92,NW,305,15.0,25.0,56,0.00,,---,0.29,VWS V14.01,2013-02-09 03:15:00,
2013-02-08 22:17:00,36.6,22.4,29.92,NW,313,7.0,21.0,56,0.00,,---,0.29,VWS V14.01,2013-02-09 03:17:00,
2013-02-08 22:20:00,36.6,22.4,29.92,NW,315,11.0,47.0,56,0.00,,---,0.29,VWS V14.01,2013-02-09 03:20:00,
2013-02-08 22:22:00,36.6,22.4,29.92,NNW,344,21.0,21.0,56,0.00,,---,0.29,VWS V14.01,2013-02-09 03:22:00,
2013-02-08 22:25:00,36.4,22.2,29.92,NW,321,12.0,27.0,56,0.00,,---,0.29,VWS V14.01,2013-02-09 03:25:00,
2013-02-08 22:27:00,36.6,22.4,29.92,NW,325,27.0,27.0,56,0.00,,---,0.29,VWS V14.01,2013-02-09 03:27:00,
2013-02-08 22:30:00,36.4,22.2,29.91,WNW,288,23.0,40.0,56,0.00,,---,0.29,VWS V14.01,2013-02-09 03:30:00,
2013-02-08 22:32:00,36.4,22.2,29.92,NNW,338,12.0,14.0,56,0.00,,---,0.29,VWS V14.01,2013-02-09 03:32:00,
2013-02-08 22:35:00,36.3,22.1,29.91,NNW,342,22.0,40.0,56,0.00,,---,0.29,VWS V14.01,2013-02-09 03:35:00,
2013-02-08 22:37:00,36.4,22.2,29.91,NNW,340,12.0,23.0,56,0.00,,---,0.29,VWS V14.01,2013-02-09 03:37:00,
2013-02-08 22:40:00,36.3,22.1,29.91,NNW,336,6.0,32.0,56,0.00,,---,0.29,VWS V14.01,2013-02-09 03:40:00,
2013-02-08 22:42:00,36.3,22.1,29.91,NW,306,19.0,22.0,56,0.00,,---,0.29,VWS V14.01,2013-02-09 03:42:00,
2013-02-08 22:45:00,36.3,22.1,29.90,North,350,31.0,31.0,56,0.00,,---,0.29,VWS V14.01,2013-02-09 03:45:00,
2013-02-08 22:47:00,36.3,22.1,29.91,WNW,286,13.0,30.0,56,0.00,,---,0.29,VWS V14.01,2013-02-09 03:47:00,
2013-02-08 22:50:00,36.1,21.9,29.90,NW,321,5.0,32.0,56,0.00,,---,0.29,VWS V14.01,2013-02-09 03:50:00,
2013-02-08 22:52:00,36.1,21.9,29.90,North,360,13.0,32.0,56,0.00,,---,0.29,VWS V14.01,2013-02-09 03:52:00,
2013-02-08 22:55:00,36.0,21.8,29.90,WNW,290,21.0,37.0,56,0.00,,---,0.29,VWS V14.01,2013-02-09 03:55:00,
2013-02-08 22:57:00,36.1,21.9,29.90,NNW,341,26.0,26.0,56,0.00,,---,0.29,VWS V14.01,2013-02-09 03:57:00,
2013-02-08 23:00:00,35.9,22.2,29.90,NNW,337,11.0,24.0,57,0.00,,---,0.29,VWS V14.01,2013-02-09 04:00:00,
2013-02-08 23:02:00,36.0,21.8,29.90,WSW,257,12.0,21.0,56,0.00,,---,0.29,VWS V14.01,2013-02-09 04:02:00,
2013-02-08 23:05:00,35.7,22.0,29.90,WNW,301,25.0,33.0,57,0.00,,---,0.29,VWS V14.01,2013-02-09 04:05:00,
2013-02-08 23:07:00,35.9,22.2,29.90,WNW,302,14.0,29.0,57,0.00,,---,0.29,VWS V14.01,2013-02-09 04:07:00,
2013-02-08 23:10:00,35.7,22.0,29.90,NW,304,10.0,34.0,57,0.00,,---,0.29,VWS V14.01,2013-02-09 04:10:00,
2013-02-08 23:12:00,35.7,22.0,29.90,NW,313,21.0,25.0,57,0.00,,---,0.29,VWS V14.01,2013-02-09 04:12:00,
2013-02-08 23:15:00,35.6,21.9,29.90,West,260,8.0,33.0,57,0.00,,---,0.29,VWS V14.01,2013-02-09 04:15:00,
2013-02-08 23:17:00,35.7,22.0,29.90,NW,321,18.0,18.0,57,0.00,,---,0.29,VWS V14.01,2013-02-09 04:17:00,
2013-02-08 23:20:00,35.4,21.7,29.90,NW,307,21.0,31.0,57,0.00,,---,0.29,VWS V14.01,2013-02-09 04:20:00,
2013-02-08 23:22:00,35.6,21.9,29.90,North,355,15.0,29.0,57,0.00,,---,0.29,VWS V14.01,2013-02-09 04:22:00,
2013-02-08 23:25:00,35.4,21.7,29.90,WNW,303,20.0,31.0,57,0.00,,---,0.29,VWS V14.01,2013-02-09 04:25:00,
2013-02-08 23:27:00,35.4,21.7,29.90,NNW,338,19.0,28.0,57,0.00,,---,0.29,VWS V14.01,2013-02-09 04:27:00,
2013-02-08 23:30:00,35.4,21.7,29.90,NW,312,14.0,30.0,57,0.00,,---,0.29,VWS V14.01,2013-02-09 04:30:00,
2013-02-08 23:32:00,35.4,21.7,29.90,NNW,335,7.0,30.0,57,0.00,,---,0.29,VWS V14.01,2013-02-09 04:32:00,
2013-02-08 23:35:00,35.3,21.6,29.90,WNW,294,16.0,29.0,57,0.00,,---,0.29,VWS V14.01,2013-02-09 04:35:00,
2013-02-08 23:37:00,35.3,21.6,29.90,WNW,290,16.0,21.0,57,0.00,,---,0.29,VWS V14.01,2013-02-09 04:37:00,
2013-02-08 23:40:00,35.3,21.6,29.90,West,277,10.0,34.0,57,0.00,,---,0.29,VWS V14.01,2013-02-09 04:40:00,
2013-02-08 23:42:00,35.3,21.6,29.90,WNW,302,17.0,33.0,57,0.00,,---,0.29,VWS V14.01,2013-02-09 04:42:00,
2013-02-08 23:45:00,35.3,21.6,29.91,NE,42,15.0,26.0,57,0.00,,---,0.29,VWS V14.01,2013-02-09 04:45:00,
2013-02-08 23:47:00,35.3,21.6,29.90,SW,232,5.0,13.0,57,0.00,,---,0.29,VWS V14.01,2013-02-09 04:47:00,
2013-02-08 23:50:00,35.1,21.4,29.91,WNW,300,13.0,39.0,57,0.00,,---,0.29,VWS V14.01,2013-02-09 04:50:00,
2013-02-08 23:52:00,35.3,21.6,29.91,NW,321,12.0,15.0,57,0.00,,---,0.29,VWS V14.01,2013-02-09 04:52:00,
2013-02-08 23:55:00,35.1,21.0,29.91,NW,309,25.0,30.0,56,0.00,,---,0.29,VWS V14.01,2013-02-09 04:55:00,
2013-02-08 23:57:00,35.1,21.4,29.91,NNE,29,13.0,22.0,57,0.00,,---,0.29,VWS V14.01,2013-02-09 04:57:00,